Flag for U.S.A. Weather past 2 weeks in Portland, Maine, U.S.A.

Now
26 °F

Passing clouds.


Feels Like: 14 °F
Forecast: 14 / 28 °F
Wind: 16 mph from Northwest

Location: Portland - Portland International Jetport

Current Time: Mar 2, 2015 at 11:01:20 PM

Latest Report: Mar 2, 2015 at 9:51 PM


Visibility: 10 mi

Pressure: 30.12 "Hg

Humidity: 46%

Dew point: 8 °F

Location of PortlandLocation

Historic Weather in Portland — Graph

°F

Portland temperature yesterday

Maximum temperature yesterday: 30 °F (at 3:51 PM)
Minimum temperature yesterday: 2 °F (at 4:51 AM)
Average temperature yesterday: 19 °F

Past Weeks' High & Low Weather Summary

 TemperatureHumidityPressure
High36 °F (Mar 2, 12:51 PM)92% (Feb 19, 7:04 AM)30.72 "Hg (Feb 19, 7:04 AM)
Low-11 °F (Feb 24, 4:51 AM)27% (Feb 16, 2:51 PM)29.45 "Hg (Feb 19, 4:51 PM)
Average18 °F56%30.07 "Hg
* Reported Feb 15 8:51 PM — Mar 2 8:51 PM, Portland, Weather by CustomWeather, © 2015

Note: Actual official high and low records may vary slightly from our data, if they occured in-between our weather recording intervals... More about our weather records

Advertising

Portland weather history for previous 24 hours

 ConditionsComfort  
Time TempWeatherWind HumidityBarometerVisibility
8:51 PM
Mon, Mar 2
27 °FMostly cloudy.20 mph51%30.11 "Hg10 mi
7:51 PM28 °FPassing clouds.18 mph43%30.07 "Hg8 mi
6:51 PM28 °FPassing clouds.20 mph41%30.03 "Hg10 mi
5:51 PM29 °FLight snow. Passing clouds.26 mph56%30.00 "Hg3 mi
4:51 PM32 °FPartly sunny.13 mph41%29.95 "Hg10 mi
3:51 PM32 °FMostly cloudy.21 mph40%29.92 "Hg10 mi
2:51 PM32 °FBroken clouds.24 mph45%29.91 "Hg10 mi
1:51 PM33 °FScattered clouds.26 mph40%29.88 "Hg10 mi
12:51 PM36 °FScattered clouds.25 mph38%29.86 "Hg10 mi
11:51 AM35 °FPassing clouds.17 mph40%29.87 "Hg10 mi
10:51 AM32 °FScattered clouds.3 mph61%29.88 "Hg10 mi
9:51 AM30 °FPartly sunny.12 mph66%29.88 "Hg10 mi
8:51 AM28 °FPartly sunny.8 mph72%29.89 "Hg10 mi
7:51 AM24 °FBroken clouds.5 mph81%29.90 "Hg10 mi
6:51 AM23 °FOvercast.5 mph85%29.90 "Hg10 mi
5:51 AM23 °FPassing clouds.5 mph85%29.91 "Hg10 mi
4:51 AM23 °FMostly cloudy.7 mph85%29.92 "Hg10 mi
3:51 AM20 °FPassing clouds.No wind92%29.93 "Hg9 mi
2:51 AM23 °FClear.6 mph85%29.96 "Hg10 mi
1:51 AM24 °FPassing clouds.3 mph84%30.01 "Hg10 mi
12:51 AM26 °FOvercast.5 mph84%30.05 "Hg9 mi
11:58 PM
Sun, Mar 1
26 °FLight snow. Ice fog.6 mph88%30.09 "Hg3 mi
Weather by CustomWeather, © 2015

See weather overviewHow to use our weather pages